Temperature
12 12 12 12 12 12 11 11 11 12 12 12 12 12 12 12 12 12 11 11 11 11 10 10 10 10 10 10 10 10 10 10 10 10 10 10 11 11 11 11 11 11 11
12 12 12 12 11 11 11 11 11 12 12 12 12 11 11 11 11 11 11 10 10 10 9 9 9 9 9 9 9 9 10 10 10 10 10 10 10 10 10 11 11 11 11
12 12 12 11 11 11 11 11 11 11 11 11 11 11 11 10 10 10 10 9 9 9 8 8 9 9 9 9 9 9 9 9 10 10 10 10 10 10 10 10 10 10 10
12 12 12 11 11 11 11 11 11 11 11 11 11 10 10 10 9 9 9 8 8 8 8 8 8 9 9 9 9 9 9 9 9 9 9 9 9 9 9 9 9 9 9
12 12 12 11 11 11 11 11 11 11 10 10 10 9 9 9 9 8 8 8 8 8 8 8 8 8 8 8 8 8 8 8 8 8 8 8 8 8 8 8 8 8 8
12 12 12 11 11 11 11 11 10 10 9 9 8 9 9 9 8 8 7 7 7 7 7 7 7 7 7 7 7 7 7 7 7 7 6 6 7 7 6 6 6 6 6
12 12 11 11 11 11 11 10 9 9 8 8 8 8 8 8 8 7 7 7 7 7 7 6 6 6 6 6 6 6 6 6 5 4 4 4 4 4 4 4 4 4 4
11 11 11 11 11 10 10 9 9 8 7 6 6 5 5 6 6 6 6 6 5 5 5 5 5 5 5 5 5 5 5 4 3 2 1 1 1 1 2 2 2 2 3
11 11 11 10 10 10 9 8 8 7 6 5 5 4 3 2 2 3 4 4 3 3 4 4 4 4 4 3 3 3 3 2 1 -0 -1 -1 -0 -0 0 1 1 1 2
11 10 10 10 9 9 8 7 6 6 5 4 4 3 2 1 -0 -0 2 2 2 3 3 3 3 3 3 2 1 1 0 -0 -2 -2 -2 -2 -1 -1 -0 -0 0 1 1
10 10 9 9 9 8 7 6 5 5 4 4 3 2 2 1 -1 -2 -2 -0 1 2 2 2 2 2 1 0 -0 -1 -2 -4 -4 -4 -3 -3 -2 -2 -1 -1 -0 -0 0
9 9 9 8 8 7 6 5 5 4 3 3 2 2 1 -0 -1 -3 -4 -4 -4 -1 -0 0 0 0 -0 -1 -1 -2 -3 -4 -5 -5 -4 -4 -3 -3 -2 -2 -2 -1 -1
9 8 8 7 7 6 5 4 4 3 3 2 2 1 0 -1 -2 -3 -4 -5 -5 -4 -4 -4 -4 -3 -3 -3 -3 -3 -4 -5 -6 -6 -5 -5 -4 -4 -4 -4 -3 -3 -3
8 8 7 6 6 5 4 4 3 3 2 2 1 1 -0 -1 -2 -3 -5 -6 -7 -6 -6 -6 -6 -6 -6 -7 -7 -7 -6 -7 -7 -6 -6 -6 -5 -5 -5 -5 -5 -4 -4
7 7 6 6 5 4 3 3 2 2 2 1 1 0 -1 -2 -3 -4 -5 -6 -7 -8 -7 -7 -7 -7 -8 -8 -8 -8 -8 -8 -7 -7 -7 -6 -6 -6 -6 -6 -6 -5 -5
7 6 5 5 4 3 3 2 2 1 1 1 0 -0 -1 -3 -4 -5 -6 -6 -7 -8 -8 -8 -8 -7 -8 -8 -8 -8 -8 -8 -8 -8 -7 -7 -7 -7 -7 -7 -6 -6 -6
6 5 5 4 3 2 2 2 1 1 1 0 -0 -1 -2 -4 -5 -6 -6 -7 -7 -8 -9 -8 -8 -8 -8 -8 -8 -8 -8 -8 -8 -8 -8 -8 -8 -8 -7 -7 -7 -7 -6
5 4 4 3 2 2 1 1 1 0 -0 -1 -2 -3 -4 -5 -6 -6 -7 -7 -8 -8 -9 -9 -9 -9 -8 -8 -8 -8 -9 -9 -9 -9 -9 -8 -8 -8 -8 -8 -7 -7 -7
4 3 3 2 2 1 1 1 0 -0 -1 -2 -3 -4 -5 -6 -6 -7 -8 -8 -8 -9 -9 -9 -9 -9 -9 -8 -9 -9 -9 -9 -9 -10 -9 -9 -9 -9 -8 -8 -8 -8 -8
3 3 2 2 1 1 0 -0 -0 -1 -2 -3 -4 -5 -6 -7 -7 -8 -8 -9 -9 -9 -9 -9 -9 -9 -9 -9 -9 -9 -10 -10 -10 -10 -10 -10 -9 -9 -9 -9 -9 -9 -9
2 2 1 1 1 0 -0 -1 -2 -3 -3 -4 -5 -6 -7 -7 -8 -9 -9 -9 -9 -9 -9 -9 -9 -9 -9 -9 -10 -10 -10 -10 -10 -10 -10 -10 -10 -10 -10 -9 -9 -9 -9
2 1 1 0 0 -0 -1 -2 -3 -4 -5 -6 -6 -7 -7 -8 -8 -9 -9 -9 -9 -9 -9 -9 -9 -10 -10 -10 -10 -10 -10 -10 -10 -10 -10 -10 -10 -10 -10 -10 -9 -10 -9
1 0 0 -0 -1 -1 -2 -2 -3 -5 -6 -6 -7 -8 -8 -8 -9 -9 -9 -9 -9 -9 -9 -10 -10 -10 -10 -10 -10 -10 -10 -11 -11 -11 -11 -11 -10 -10 -10 -10 -9 -9 -9
0 0 -0 -1 -1 -2 -2 -3 -5 -6 -7 -7 -8 -8 -9 -9 -9 -9 -9 -9 -9 -9 -10 -10 -10 -10 -10 -10 -10 -11 -11 -11 -11 -11 -11 -11 -11 -10 -10 -9 -8 -8 -9
-0 -1 -1 -2 -2 -3 -3 -4 -6 -7 -7 -8 -8 -9 -9 -10 -10 -9 -9 -9 -10 -9 -10 -10 -10 -10 -10 -10 -10 -11 -11 -12 -12 -11 -10 -11 -10 -11 -10 -9 -7 -8 -8
-1 -1 -2 -2 -3 -4 -4 -5 -7 -8 -8 -8 -9 -9 -10 -10 -10 -9 -9 -10 -10 -10 -10 -10 -10 -9 -8 -9 -9 -10 -11 -12 -12 -12 -9 -11 -11 -12 -11 -8 -6 -6 -6
Wind_Speed
3 3 4 5 6 6 6 5 6 6 6 7 7 7 6 8 8 8 9 13 16 17 17 17 17 17 16 16 16 16 17 16 16 16 15 15 15 14 14 15 15 15 15
6 5 4 5 6 8 8 7 6 5 4 4 5 6 6 7 7 8 10 13 16 18 18 18 17 17 16 16 15 15 16 16 16 16 16 15 15 15 16 16 16 16 16
10 8 5 5 6 8 8 7 6 6 5 5 6 5 5 6 6 7 9 11 13 16 17 18 18 17 17 16 16 16 16 16 17 16 16 16 16 17 17 17 18 18 19
13 9 6 5 7 8 7 5 5 5 6 6 6 5 4 4 4 5 7 9 11 12 15 18 19 18 17 17 17 17 18 18 18 17 17 18 18 18 18 19 19 20 20
13 11 7 6 9 7 5 5 6 5 5 7 6 5 4 4 2 3 4 6 8 10 12 14 18 18 18 18 18 19 20 19 19 19 19 19 19 20 20 20 20 21 22
14 13 9 8 8 6 6 5 6 6 5 5 6 7 5 3 2 2 2 3 4 7 11 13 15 17 17 18 20 21 21 21 20 20 20 20 21 22 22 22 22 23 23
14 12 8 6 6 7 7 6 4 6 6 6 5 6 5 3 3 0 1 1 2 7 14 16 17 17 14 19 21 22 22 22 21 21 22 22 23 24 24 24 25 25 25
14 12 8 7 6 7 8 8 6 3 5 6 4 4 5 6 5 4 4 3 5 8 10 17 18 16 16 16 18 22 22 22 22 23 24 25 26 26 26 26 27 27 27
14 13 11 8 6 7 6 7 6 5 4 4 4 4 3 4 5 5 5 5 5 6 6 11 14 16 19 17 17 18 21 23 23 25 26 27 28 28 28 28 28 29 29
13 14 12 10 7 6 7 6 6 4 3 3 3 2 1 3 3 6 5 4 5 8 8 10 11 16 18 16 17 20 22 23 25 27 29 30 30 30 30 30 30 30 30
10 12 12 9 6 5 6 6 5 4 3 2 1 2 2 2 3 4 7 6 7 6 7 10 9 10 14 15 14 17 23 26 28 29 30 31 31 32 32 32 32 32 32
6 8 10 9 7 5 5 5 4 4 2 1 0 1 2 2 2 4 6 12 13 8 10 10 8 6 12 13 16 23 27 29 30 30 31 32 33 33 33 33 33 34 34
5 6 6 5 5 5 5 4 3 3 1 1 2 2 2 3 3 4 7 12 13 8 6 5 5 7 13 13 16 27 29 30 31 32 34 35 35 35 35 35 35 35 35
6 6 6 6 6 5 4 3 2 2 1 3 4 4 3 4 4 4 5 10 14 7 5 7 6 7 8 12 21 28 23 30 33 35 36 37 36 36 35 36 36 36 36
6 6 6 5 5 4 3 2 2 3 3 3 5 5 4 5 5 5 5 6 8 14 18 6 4 4 8 14 20 20 20 29 34 36 36 37 36 36 37 37 37 37 37
7 7 6 5 4 3 3 2 3 3 4 4 4 5 6 5 6 6 6 7 8 13 17 9 12 12 10 14 23 22 22 32 33 34 35 35 36 37 38 39 39 38 37
7 6 5 4 3 3 3 3 4 4 5 6 6 6 7 8 6 6 6 7 9 10 17 19 15 13 12 12 14 15 19 17 20 31 34 36 37 38 38 38 37 37 36
6 6 4 4 3 3 3 3 5 6 6 7 7 7 8 8 8 7 8 9 10 10 15 21 19 16 16 14 15 13 15 16 12 27 33 35 36 36 36 36 36 36 36
6 5 4 3 3 4 4 4 5 6 7 7 7 7 8 8 9 9 10 10 10 12 11 16 19 17 15 14 14 15 14 12 15 22 28 30 32 34 35 36 36 36 36
6 4 3 3 3 4 5 6 6 6 6 6 6 7 8 9 11 11 11 10 10 12 12 15 16 16 15 13 12 15 16 12 14 16 22 24 28 32 34 35 36 36 36
5 3 3 3 4 4 5 7 6 5 5 6 7 8 9 13 17 15 14 12 12 13 14 15 16 17 16 15 16 15 18 18 15 13 14 14 15 15 18 26 30 33 34
4 3 3 3 4 4 10 14 11 5 5 6 8 9 10 12 17 22 26 25 23 18 16 15 15 17 19 17 17 18 19 20 18 8 11 17 14 16 15 14 26 34 35
3 3 3 4 5 8 13 15 16 9 6 7 9 10 11 13 18 13 20 25 21 23 24 17 17 18 19 19 20 21 19 19 20 16 16 20 15 17 16 19 32 35 36
2 2 3 5 6 8 14 16 17 8 7 8 9 10 11 12 14 18 17 15 12 13 18 15 13 16 17 16 17 18 19 19 19 14 13 18 18 18 19 17 29 34 35
2 3 4 5 6 8 14 16 17 6 7 9 9 10 12 11 22 27 18 15 15 14 19 23 24 24 28 27 22 15 15 15 18 17 11 10 13 17 18 18 19 27 29
2 4 5 5 6 7 13 17 18 6 7 8 7 8 16 20 25 27 16 12 15 16 16 16 17 20 17 19 22 14 13 14 15 12 6 6 12 13 10 8 9 14 18
Wind_Direction
138 109 89 77 68 70 69 63 58 51 40 31 28 29 25 14 13 24 35 46 50 47 45 39 32 26 22 19 18 17 14 10 6 2 357 353 348 342 336 331 324 317 310
132 112 94 77 67 68 70 68 63 52 38 22 18 20 23 16 22 40 52 53 53 48 42 35 27 21 15 10 7 7 5 0 354 349 344 339 334 329 324 319 314 311 308
125 113 98 81 70 74 74 65 58 48 34 18 8 9 23 20 28 46 57 61 56 46 39 31 21 14 7 1 356 352 348 345 340 335 331 327 323 319 314 310 306 302 299
120 111 100 86 77 72 67 62 40 38 25 11 351 345 7 9 22 47 57 64 64 50 36 27 17 7 359 352 347 342 337 333 329 326 323 320 317 313 309 305 302 299 296
114 107 97 88 82 68 51 57 48 40 24 360 338 333 352 350 359 53 54 63 64 52 36 22 13 1 352 345 340 334 329 324 321 318 316 315 311 308 305 302 299 296 293
109 103 94 85 80 70 54 50 55 43 31 353 336 331 333 342 3 64 46 53 52 38 28 17 5 349 341 336 333 328 324 320 315 313 311 310 308 305 302 298 296 293 290
105 100 97 84 76 75 64 50 53 40 23 3 3 339 336 355 354 112 19 336 1 14 15 5 348 333 324 326 325 321 320 316 312 309 309 308 305 302 299 296 293 290 287
101 98 95 91 82 82 65 51 49 52 25 26 33 6 346 337 342 342 340 346 5 10 1 342 326 317 313 311 310 316 315 312 309 307 307 306 303 300 296 293 290 287 285
96 98 95 91 81 81 76 64 56 66 34 15 41 58 15 310 309 311 318 337 353 353 334 316 309 308 307 304 304 307 309 309 306 305 305 303 301 297 294 291 288 286 283
94 94 92 88 82 78 75 67 65 67 70 31 5 31 230 238 288 309 302 308 323 317 303 309 305 298 296 296 298 305 307 304 304 304 303 301 299 296 293 291 288 285 283
87 89 88 85 79 76 76 69 65 63 77 87 20 327 317 294 246 269 294 305 306 287 294 296 292 290 290 290 291 297 304 306 304 302 300 299 297 295 293 291 289 287 285
84 82 84 81 79 75 72 69 66 62 67 81 143 243 240 270 286 277 287 306 307 300 292 285 282 282 292 295 299 308 309 305 303 301 299 297 295 294 293 292 291 288 286
93 84 84 81 75 73 73 67 56 35 22 314 278 256 237 236 241 263 292 306 305 298 271 259 259 281 293 299 308 308 306 304 304 302 299 297 296 294 293 292 290 288 286
108 102 93 85 77 69 63 52 33 336 298 282 274 265 255 253 247 257 278 305 313 301 251 262 266 258 275 292 298 301 300 300 300 299 297 296 295 294 293 291 290 288 286
108 100 92 83 69 56 41 23 334 306 298 276 272 269 258 256 253 256 261 271 291 306 310 285 262 261 277 286 290 293 287 293 296 296 295 295 294 293 292 291 289 287 285
101 99 88 78 60 38 12 347 311 302 305 293 278 272 268 261 259 258 257 260 262 281 294 293 299 295 287 295 298 296 290 294 295 294 293 292 292 292 291 289 288 286 284
101 95 89 75 51 21 352 336 316 309 309 301 297 287 278 273 269 265 261 263 266 271 287 297 298 298 291 289 292 285 283 281 283 289 291 291 291 290 289 289 288 287 284
98 95 88 70 35 2 340 328 314 313 303 299 297 295 289 292 279 274 271 270 273 271 281 295 302 304 299 296 293 289 296 294 286 290 291 291 291 291 290 289 288 286 284
98 88 80 57 14 343 326 310 298 297 295 294 296 296 292 289 285 281 278 279 279 284 282 291 298 300 299 299 300 299 294 288 289 292 293 292 291 290 289 288 288 287 286
100 88 71 38 356 326 307 297 295 294 295 298 296 290 287 284 283 284 287 281 289 294 292 292 294 299 301 302 304 307 305 296 294 294 292 290 289 291 289 289 288 286 284
95 82 54 15 343 316 304 307 299 293 294 295 293 287 287 298 303 304 305 305 303 299 298 299 302 305 307 310 309 308 304 304 295 288 290 289 288 284 284 283 283 282 280
81 56 26 351 333 324 321 325 325 298 287 292 297 294 292 296 301 311 311 307 304 303 305 305 306 305 304 305 305 305 305 304 303 298 293 297 292 288 285 279 281 281 280
65 25 351 335 319 312 325 326 323 322 295 290 291 295 303 306 311 298 298 303 304 305 305 303 300 299 300 303 304 305 304 302 300 303 304 297 296 291 288 284 286 284 283
40 356 328 322 316 318 330 326 322 324 292 284 283 286 291 294 299 305 305 309 302 299 299 299 290 292 297 300 301 302 301 301 297 295 293 294 297 295 294 288 287 284 282
9 330 314 320 318 316 327 324 324 301 289 288 287 290 301 300 305 312 317 311 308 306 308 306 305 305 306 307 308 307 306 306 305 304 298 287 294 301 296 288 283 284 285
336 323 319 316 310 304 317 325 325 300 296 298 293 288 307 313 313 319 319 314 314 311 312 314 312 308 303 301 307 306 303 301 302 304 290 288 298 313 307 283 277 288 290
Height
1514 1515 1515 1516 1515 1515 1515 1514 1513 1512 1511 1510 1509 1507 1506 1504 1502 1501 1499 1498 1496 1495 1493 1492 1491 1490 1489 1488 1486 1485 1484 1483 1482 1481 1480 1480 1479 1479 1478 1478 1477 1477 1476
1513 1514 1514 1514 1514 1513 1513 1512 1511 1510 1509 1508 1506 1504 1502 1500 1498 1497 1495 1493 1492 1491 1490 1488 1487 1486 1485 1484 1482 1481 1479 1478 1477 1476 1475 1474 1473 1472 1472 1471 1471 1470 1470
1512 1512 1513 1512 1512 1512 1511 1510 1509 1507 1506 1505 1503 1501 1498 1496 1494 1492 1491 1490 1489 1488 1487 1485 1484 1483 1481 1480 1478 1476 1474 1472 1471 1470 1468 1467 1466 1465 1464 1463 1463 1462 1462
1510 1510 1511 1511 1511 1510 1509 1508 1506 1505 1503 1501 1499 1497 1495 1492 1490 1489 1487 1486 1486 1485 1484 1482 1481 1479 1477 1475 1472 1470 1468 1466 1464 1462 1461 1459 1458 1456 1455 1454 1454 1453 1453
1508 1509 1509 1509 1509 1508 1507 1505 1503 1501 1498 1496 1494 1493 1491 1488 1486 1485 1484 1484 1483 1482 1480 1479 1476 1474 1471 1469 1466 1463 1461 1459 1457 1455 1453 1451 1449 1448 1446 1445 1444 1443 1443
1505 1506 1507 1507 1507 1506 1504 1502 1500 1497 1494 1492 1491 1489 1487 1484 1483 1483 1482 1481 1480 1479 1477 1474 1472 1469 1466 1463 1460 1457 1454 1451 1449 1447 1444 1442 1440 1439 1437 1436 1435 1434 1433
1503 1504 1505 1505 1505 1503 1502 1499 1497 1495 1492 1489 1487 1484 1483 1482 1481 1480 1480 1479 1477 1475 1473 1470 1467 1463 1460 1456 1453 1450 1446 1443 1441 1439 1436 1434 1432 1430 1428 1427 1425 1425 1424
1501 1502 1503 1503 1502 1500 1498 1496 1494 1492 1490 1487 1485 1481 1480 1479 1478 1478 1477 1475 1472 1469 1467 1463 1460 1457 1453 1449 1445 1442 1439 1435 1433 1431 1428 1426 1423 1421 1419 1417 1416 1415 1414
1499 1500 1501 1500 1499 1498 1496 1494 1492 1490 1489 1487 1485 1484 1481 1477 1473 1468 1469 1467 1464 1461 1459 1455 1452 1449 1446 1441 1438 1434 1430 1427 1424 1422 1420 1417 1414 1412 1410 1408 1406 1405 1404
1497 1498 1498 1498 1497 1495 1493 1492 1490 1488 1487 1486 1484 1483 1482 1478 1473 1464 1460 1459 1457 1453 1451 1448 1445 1442 1438 1434 1430 1426 1422 1419 1416 1414 1411 1408 1405 1402 1400 1398 1396 1394 1393
1495 1495 1496 1495 1494 1493 1491 1490 1488 1487 1485 1483 1481 1479 1477 1475 1471 1465 1455 1449 1446 1445 1443 1440 1437 1434 1431 1426 1422 1418 1414 1411 1408 1405 1401 1398 1395 1392 1390 1387 1385 1383 1381
1492 1493 1493 1493 1492 1491 1489 1488 1487 1485 1483 1481 1478 1476 1473 1470 1467 1462 1453 1444 1438 1434 1433 1432 1430 1427 1424 1419 1415 1410 1406 1402 1398 1395 1392 1388 1385 1382 1378 1375 1373 1370 1368
1490 1491 1491 1490 1489 1488 1487 1486 1485 1483 1481 1478 1476 1473 1470 1467 1463 1459 1452 1442 1432 1425 1422 1421 1420 1418 1415 1411 1406 1402 1397 1393 1389 1385 1381 1378 1374 1370 1367 1363 1360 1357 1355
1488 1489 1489 1488 1487 1486 1485 1483 1482 1480 1477 1475 1472 1469 1466 1463 1459 1455 1450 1442 1429 1418 1416 1413 1410 1408 1405 1402 1398 1393 1388 1384 1380 1375 1371 1367 1363 1358 1354 1351 1347 1344 1342
1486 1487 1486 1486 1485 1483 1482 1480 1479 1476 1474 1471 1467 1464 1461 1457 1454 1450 1447 1442 1435 1419 1405 1402 1401 1399 1397 1393 1389 1385 1381 1376 1371 1366 1361 1356 1351 1347 1342 1338 1335 1331 1329
1484 1484 1484 1483 1482 1481 1479 1477 1475 1472 1470 1466 1463 1459 1455 1452 1448 1445 1441 1437 1433 1424 1408 1397 1394 1391 1387 1385 1382 1377 1372 1367 1362 1357 1351 1346 1341 1336 1330 1326 1322 1318 1315
1482 1482 1481 1480 1479 1478 1475 1473 1471 1468 1465 1461 1457 1453 1449 1446 1442 1438 1434 1430 1425 1419 1407 1392 1389 1384 1379 1375 1370 1366 1362 1357 1351 1346 1340 1335 1329 1324 1318 1313 1309 1305 1302
1479 1479 1478 1477 1476 1474 1472 1469 1466 1463 1459 1455 1451 1447 1443 1439 1435 1431 1427 1422 1417 1412 1404 1391 1381 1376 1371 1366 1361 1356 1352 1347 1341 1335 1329 1323 1317 1312 1307 1301 1297 1293 1289
1476 1476 1475 1474 1473 1471 1468 1465 1461 1458 1454 1449 1445 1441 1437 1432 1427 1423 1418 1413 1409 1404 1398 1389 1378 1371 1364 1359 1353 1346 1341 1335 1329 1324 1318 1312 1306 1300 1295 1289 1285 1280 1276
1474 1473 1472 1471 1469 1466 1463 1460 1456 1452 1448 1444 1439 1435 1431 1426 1421 1416 1411 1407 1402 1396 1389 1382 1373 1365 1358 1352 1346 1338 1329 1323 1317 1313 1306 1300 1295 1288 1282 1277 1271 1266 1262
1471 1470 1469 1467 1465 1462 1458 1454 1450 1446 1442 1437 1433 1429 1425 1420 1416 1411 1407 1401 1395 1388 1382 1375 1367 1359 1352 1345 1338 1331 1322 1313 1306 1303 1294 1287 1282 1274 1267 1262 1257 1252 1248
1468 1467 1465 1463 1460 1457 1453 1449 1445 1440 1436 1432 1427 1423 1418 1414 1409 1405 1400 1394 1390 1384 1376 1369 1361 1354 1345 1339 1332 1325 1317 1307 1295 1293 1287 1276 1272 1263 1256 1250 1244 1239 1235
1465 1464 1461 1459 1456 1452 1448 1444 1440 1436 1431 1426 1422 1417 1412 1407 1403 1396 1390 1386 1382 1377 1372 1365 1355 1347 1340 1334 1327 1318 1311 1303 1293 1286 1280 1266 1260 1252 1245 1237 1232 1227 1222
1462 1460 1457 1454 1451 1447 1443 1439 1434 1430 1425 1421 1417 1412 1406 1400 1395 1390 1384 1378 1372 1367 1362 1355 1349 1342 1335 1328 1322 1314 1305 1295 1286 1279 1275 1262 1251 1242 1233 1225 1218 1213 1208
1459 1456 1453 1449 1446 1442 1438 1433 1429 1424 1419 1415 1411 1406 1401 1395 1389 1384 1378 1371 1363 1357 1352 1347 1342 1336 1328 1322 1315 1308 1299 1290 1278 1269 1266 1257 1244 1234 1221 1212 1205 1201 1196
1455 1452 1449 1445 1441 1437 1432 1428 1424 1418 1413 1409 1404 1400 1395 1389 1384 1378 1372 1364 1356 1350 1344 1338 1332 1326 1320 1314 1309 1303 1295 1286 1276 1265 1257 1251 1241 1233 1215 1201 1198 1192 1185